Location: Biltmore Gardens
(41.6070°N, 83.4666°W)
Time: 14:20:52
(UTC+00:00)

Cosmos 676 Rocket - Pass Details

Date: 14 July 2020
Orbit: 753 x 785 km, 74.0° (Epoch: 05 August)

Event Time Altitude Azimuth Distance (km) Brightness Sun altitude
Exits shadow 07:57:50 37° 218° (SW) 1,172 4.4 -19.2°
Maximum altitude 07:59:51 70° 291° (WNW) 823 4.0 -19.0°
Drops below altitude 10° 08:05:09 10° 15° (NNE) 2,334 7.6 -18.4°
Sets 08:07:34 0° 18° (NNE) 3,270 8.6 -18.1°
